Year,Month,Day,Hour,Minute,Value (Times are PST for temperature in C)
2016,11,10,00,00,11.70
2016,11,10,00,01,11.70
2016,11,10,00,02,11.70
2016,11,10,00,03,11.70
2016,11,10,00,04,11.70
2016,11,10,00,05,11.70
2016,11,10,00,06,11.70
2016,11,10,00,07,11.70
2016,11,10,00,08,11.70
2016,11,10,00,09,11.70
2016,11,10,00,10,11.60
2016,11,10,00,11,11.60
2016,11,10,00,12,11.60
2016,11,10,00,13,11.60
2016,11,10,00,14,11.60
2016,11,10,00,15,11.70
2016,11,10,00,16,11.70
2016,11,10,00,17,11.70
2016,11,10,00,18,11.70
2016,11,10,00,19,11.70
2016,11,10,00,20,11.70
2016,11,10,00,21,11.80
2016,11,10,00,22,11.80
2016,11,10,00,23,11.80
2016,11,10,00,24,11.80
2016,11,10,00,25,11.90
2016,11,10,00,26,11.90
2016,11,10,00,27,11.90
2016,11,10,00,28,11.90
2016,11,10,00,29,11.90
2016,11,10,00,30,11.90
2016,11,10,00,31,11.90
2016,11,10,00,32,12.00
2016,11,10,00,33,12.00
2016,11,10,00,34,12.00
2016,11,10,00,35,12.00
2016,11,10,00,36,12.00
2016,11,10,00,37,12.00
2016,11,10,00,38,12.00
2016,11,10,00,39,12.00
2016,11,10,00,40,12.00
2016,11,10,00,41,11.90
2016,11,10,00,42,11.90
2016,11,10,00,43,11.90
2016,11,10,00,44,11.90
2016,11,10,00,45,11.90
2016,11,10,00,46,11.90
2016,11,10,00,47,11.90
2016,11,10,00,48,11.90
2016,11,10,00,49,11.90
2016,11,10,00,50,11.90
2016,11,10,00,51,11.90
2016,11,10,00,52,11.90
2016,11,10,00,53,11.90
2016,11,10,00,54,11.80
2016,11,10,00,55,11.80
2016,11,10,00,56,11.80
2016,11,10,00,57,11.80
2016,11,10,00,58,11.80
2016,11,10,00,59,11.80
2016,11,10,01,00,11.80
2016,11,10,01,01,11.80
2016,11,10,01,02,11.80
2016,11,10,01,03,11.80
2016,11,10,01,04,11.70
2016,11,10,01,05,11.70
2016,11,10,01,06,11.70
2016,11,10,01,07,11.80
2016,11,10,01,08,11.80
2016,11,10,01,09,11.80
2016,11,10,01,10,11.80
2016,11,10,01,11,11.80
2016,11,10,01,12,11.90
2016,11,10,01,13,11.90
2016,11,10,01,14,11.90
2016,11,10,01,15,12.00
2016,11,10,01,16,12.00
2016,11,10,01,17,12.10
2016,11,10,01,18,12.10
2016,11,10,01,19,12.10
2016,11,10,01,20,12.10
2016,11,10,01,21,12.10
2016,11,10,01,22,12.20
2016,11,10,01,23,12.20
2016,11,10,01,24,12.20
2016,11,10,01,25,12.20
2016,11,10,01,26,12.20
2016,11,10,01,27,12.20
2016,11,10,01,28,12.20
2016,11,10,01,29,12.20
2016,11,10,01,30,12.20
2016,11,10,01,31,12.20
2016,11,10,01,32,12.20
2016,11,10,01,33,12.20
2016,11,10,01,34,12.20
2016,11,10,01,35,12.20
2016,11,10,01,36,12.20
2016,11,10,01,37,12.20
2016,11,10,01,38,12.20
2016,11,10,01,39,12.20
2016,11,10,01,40,12.20
2016,11,10,01,41,12.20
2016,11,10,01,42,12.20
2016,11,10,01,43,12.20
2016,11,10,01,44,12.20
2016,11,10,01,45,12.20
2016,11,10,01,46,12.20
2016,11,10,01,47,12.20
2016,11,10,01,48,12.20
2016,11,10,01,49,12.10
2016,11,10,01,50,12.00
2016,11,10,01,51,12.00
2016,11,10,01,52,11.90
2016,11,10,01,53,11.80
2016,11,10,01,54,11.80
2016,11,10,01,55,11.80
2016,11,10,01,56,11.80
2016,11,10,01,57,11.70
2016,11,10,01,58,11.70
2016,11,10,01,59,11.70
2016,11,10,02,00,11.70
2016,11,10,02,01,11.70
2016,11,10,02,02,11.70
2016,11,10,02,03,11.70
2016,11,10,02,04,11.70
2016,11,10,02,05,11.70
2016,11,10,02,06,11.70
2016,11,10,02,07,11.80
2016,11,10,02,08,11.80
2016,11,10,02,09,11.80
2016,11,10,02,10,11.80
2016,11,10,02,11,11.90
2016,11,10,02,12,12.00
2016,11,10,02,13,12.00
2016,11,10,02,14,12.00
2016,11,10,02,15,12.10
2016,11,10,02,16,12.10
2016,11,10,02,17,12.20
2016,11,10,02,18,12.20
2016,11,10,02,19,12.30
2016,11,10,02,20,12.30
2016,11,10,02,21,12.30
2016,11,10,02,22,12.40
2016,11,10,02,23,12.40
2016,11,10,02,24,12.40
2016,11,10,02,25,12.50
2016,11,10,02,26,12.50
2016,11,10,02,27,12.50
2016,11,10,02,28,12.60
2016,11,10,02,29,12.60
2016,11,10,02,30,12.60
2016,11,10,02,31,12.60
2016,11,10,02,32,12.60
2016,11,10,02,33,12.60
2016,11,10,02,34,12.60
2016,11,10,02,35,12.60
2016,11,10,02,36,12.60
2016,11,10,02,37,12.60
2016,11,10,02,38,12.60
2016,11,10,02,39,12.60
2016,11,10,02,40,12.70
2016,11,10,02,41,12.70
2016,11,10,02,42,12.70
2016,11,10,02,43,12.70
2016,11,10,02,44,12.70
2016,11,10,02,45,12.70
2016,11,10,02,46,12.70
2016,11,10,02,47,12.70
2016,11,10,02,48,12.70
2016,11,10,02,49,12.60
2016,11,10,02,50,12.60
2016,11,10,02,51,12.60
2016,11,10,02,52,12.60
2016,11,10,02,53,12.60
2016,11,10,02,54,12.50
2016,11,10,02,55,12.50
2016,11,10,02,56,12.50
2016,11,10,02,57,12.40
2016,11,10,02,58,12.40
2016,11,10,02,59,12.40
2016,11,10,03,00,12.30
2016,11,10,03,01,12.30
2016,11,10,03,02,12.30
2016,11,10,03,03,12.30
2016,11,10,03,04,12.30
2016,11,10,03,05,12.30
2016,11,10,03,06,12.30
2016,11,10,03,07,12.40
2016,11,10,03,08,12.40
2016,11,10,03,09,12.40
2016,11,10,03,10,12.40
2016,11,10,03,11,12.40
2016,11,10,03,12,12.40
2016,11,10,03,13,12.40
2016,11,10,03,14,12.40
2016,11,10,03,15,12.40
2016,11,10,03,16,12.40
2016,11,10,03,17,12.40
2016,11,10,03,18,12.40
2016,11,10,03,19,12.40
2016,11,10,03,20,12.40
2016,11,10,03,21,12.40
2016,11,10,03,22,12.40
2016,11,10,03,23,12.40
2016,11,10,03,24,12.40
2016,11,10,03,25,12.40
2016,11,10,03,26,12.40
2016,11,10,03,27,12.30
2016,11,10,03,28,12.30
2016,11,10,03,29,12.30
2016,11,10,03,30,12.30
2016,11,10,03,31,12.30
2016,11,10,03,32,12.30
2016,11,10,03,33,12.30
2016,11,10,03,34,12.30
2016,11,10,03,35,12.30
2016,11,10,03,36,12.30
2016,11,10,03,37,12.30
2016,11,10,03,38,12.30
2016,11,10,03,39,12.30
2016,11,10,03,40,12.30
2016,11,10,03,41,12.30
2016,11,10,03,42,12.30
2016,11,10,03,43,12.30
2016,11,10,03,44,12.30
2016,11,10,03,45,12.30
2016,11,10,03,46,12.30
2016,11,10,03,47,12.30
2016,11,10,03,48,12.30
2016,11,10,03,49,12.30
2016,11,10,03,50,12.30
2016,11,10,03,51,12.30
2016,11,10,03,52,12.30
2016,11,10,03,53,12.30
2016,11,10,03,54,12.30
2016,11,10,03,55,12.30
2016,11,10,03,56,12.30
2016,11,10,03,57,12.20
2016,11,10,03,58,12.30
2016,11,10,03,59,12.20
2016,11,10,04,00,12.30
2016,11,10,04,01,12.30
2016,11,10,04,02,12.30
2016,11,10,04,03,12.30
2016,11,10,04,04,12.30
2016,11,10,04,05,12.30
2016,11,10,04,06,12.30
2016,11,10,04,07,12.30
2016,11,10,04,08,12.30
2016,11,10,04,09,12.30
2016,11,10,04,10,12.30
2016,11,10,04,11,12.20
2016,11,10,04,12,12.30
2016,11,10,04,13,12.30
2016,11,10,04,14,12.20
2016,11,10,04,15,12.20
2016,11,10,04,16,12.20
2016,11,10,04,17,12.20
2016,11,10,04,18,12.20
2016,11,10,04,19,12.20
2016,11,10,04,20,12.20
2016,11,10,04,21,12.20
2016,11,10,04,22,12.20
2016,11,10,04,23,12.20
2016,11,10,04,24,12.20
2016,11,10,04,25,12.20
2016,11,10,04,26,12.20
2016,11,10,04,27,12.20
2016,11,10,04,28,12.20
2016,11,10,04,29,12.20
2016,11,10,04,30,12.20
2016,11,10,04,31,12.10
2016,11,10,04,32,12.10
2016,11,10,04,33,12.10
2016,11,10,04,34,12.10
2016,11,10,04,35,12.10
2016,11,10,04,36,12.10
2016,11,10,04,37,12.10
2016,11,10,04,38,12.10
2016,11,10,04,39,12.10
2016,11,10,04,40,12.10
2016,11,10,04,41,12.10
2016,11,10,04,42,12.10
2016,11,10,04,43,12.00
2016,11,10,04,44,12.00
2016,11,10,04,45,12.00
2016,11,10,04,46,12.00
2016,11,10,04,47,12.00
2016,11,10,04,48,12.00
2016,11,10,04,49,12.00
2016,11,10,04,50,12.00
2016,11,10,04,51,12.00
2016,11,10,04,52,12.00
2016,11,10,04,53,11.90
2016,11,10,04,54,12.00
2016,11,10,04,55,12.00
2016,11,10,04,56,12.00
2016,11,10,04,57,12.00
2016,11,10,04,58,12.00
2016,11,10,04,59,11.90
2016,11,10,05,00,12.00
2016,11,10,05,01,11.90
2016,11,10,05,02,11.90
2016,11,10,05,03,11.90
2016,11,10,05,04,12.00
2016,11,10,05,05,11.90
2016,11,10,05,06,11.90
2016,11,10,05,07,11.90
2016,11,10,05,08,11.90
2016,11,10,05,09,11.90
2016,11,10,05,10,11.90
2016,11,10,05,11,11.90
2016,11,10,05,12,11.90
2016,11,10,05,13,11.90
2016,11,10,05,14,11.90
2016,11,10,05,15,11.90
2016,11,10,05,16,11.90
2016,11,10,05,17,11.90
2016,11,10,05,18,11.90
2016,11,10,05,19,11.90
2016,11,10,05,20,11.90
2016,11,10,05,21,11.90
2016,11,10,05,22,11.90
2016,11,10,05,23,11.90
2016,11,10,05,24,11.80
2016,11,10,05,25,11.80
2016,11,10,05,26,11.80
2016,11,10,05,27,11.80
2016,11,10,05,28,11.80
2016,11,10,05,29,11.80
2016,11,10,05,30,11.80
2016,11,10,05,31,11.80
2016,11,10,05,32,11.80
2016,11,10,05,33,11.80
2016,11,10,05,34,11.80
2016,11,10,05,35,11.80
2016,11,10,05,36,11.80
2016,11,10,05,37,11.80
2016,11,10,05,38,11.80
2016,11,10,05,39,11.80
2016,11,10,05,40,11.80
2016,11,10,05,41,11.80
2016,11,10,05,42,11.80
2016,11,10,05,43,11.80
2016,11,10,05,44,11.80
2016,11,10,05,45,11.70
2016,11,10,05,46,11.70
2016,11,10,05,47,11.70
2016,11,10,05,48,11.70
2016,11,10,05,49,11.70
2016,11,10,05,50,11.70
2016,11,10,05,51,11.70
2016,11,10,05,52,11.70
2016,11,10,05,53,11.70
2016,11,10,05,54,11.70
2016,11,10,05,55,11.70
2016,11,10,05,56,11.70
2016,11,10,05,57,11.70
2016,11,10,05,58,11.70
2016,11,10,05,59,11.70
2016,11,10,06,00,11.70
2016,11,10,06,01,11.70
2016,11,10,06,02,11.70
2016,11,10,06,03,11.70
2016,11,10,06,04,11.70
2016,11,10,06,05,11.70
2016,11,10,06,06,11.70
2016,11,10,06,07,11.70
2016,11,10,06,08,11.70
2016,11,10,06,09,11.70
2016,11,10,06,10,11.70
2016,11,10,06,11,11.70
2016,11,10,06,12,11.70
2016,11,10,06,13,11.70
2016,11,10,06,14,11.70
2016,11,10,06,15,11.70
2016,11,10,06,16,11.70
2016,11,10,06,17,11.70
2016,11,10,06,18,11.70
2016,11,10,06,19,11.70
2016,11,10,06,20,11.70
2016,11,10,06,21,11.70
2016,11,10,06,22,11.70
2016,11,10,06,23,11.70
2016,11,10,06,24,11.70
2016,11,10,06,25,11.70
2016,11,10,06,26,11.70
2016,11,10,06,27,11.70
2016,11,10,06,28,11.70
2016,11,10,06,29,11.60
2016,11,10,06,30,11.60
2016,11,10,06,31,11.60
2016,11,10,06,32,11.60
2016,11,10,06,33,11.60
2016,11,10,06,34,11.60
2016,11,10,06,35,11.60
2016,11,10,06,36,11.60
2016,11,10,06,37,11.60
2016,11,10,06,38,11.60
2016,11,10,06,39,11.60
2016,11,10,06,40,11.60
2016,11,10,06,41,11.60
2016,11,10,06,42,11.60
2016,11,10,06,43,11.60
2016,11,10,06,44,11.60
2016,11,10,06,45,11.60
2016,11,10,06,46,11.60
2016,11,10,06,47,11.60
2016,11,10,06,48,11.60
2016,11,10,06,49,11.60
2016,11,10,06,50,11.60
2016,11,10,06,51,11.60
2016,11,10,06,52,11.60
2016,11,10,06,53,11.60
2016,11,10,06,54,11.60
2016,11,10,06,55,11.60
2016,11,10,06,56,11.60
2016,11,10,06,57,11.60
2016,11,10,06,58,11.60
2016,11,10,06,59,11.60
2016,11,10,07,00,11.60
2016,11,10,07,01,11.60
2016,11,10,07,02,11.60
2016,11,10,07,03,11.60
2016,11,10,07,04,11.60
2016,11,10,07,05,11.60
2016,11,10,07,06,11.60
2016,11,10,07,07,11.60
2016,11,10,07,08,11.60
2016,11,10,07,09,11.60
2016,11,10,07,10,11.60
2016,11,10,07,11,11.60
2016,11,10,07,12,11.60
2016,11,10,07,13,11.60
2016,11,10,07,14,11.60
2016,11,10,07,15,11.60
2016,11,10,07,16,11.60
2016,11,10,07,17,11.60
2016,11,10,07,18,11.60
2016,11,10,07,19,11.60
2016,11,10,07,20,11.60
2016,11,10,07,21,11.60
2016,11,10,07,22,11.60
2016,11,10,07,23,11.60
2016,11,10,07,24,11.60
2016,11,10,07,25,11.60
2016,11,10,07,26,11.60
2016,11,10,07,27,11.60
2016,11,10,07,28,11.60
2016,11,10,07,29,11.60
2016,11,10,07,30,11.60
2016,11,10,07,31,11.60
2016,11,10,07,32,11.60
2016,11,10,07,33,11.60
2016,11,10,07,34,11.60
2016,11,10,07,35,11.60
2016,11,10,07,36,11.60
2016,11,10,07,37,11.60
2016,11,10,07,38,11.60
2016,11,10,07,39,11.60
2016,11,10,07,40,11.60
2016,11,10,07,41,11.60
2016,11,10,07,42,11.60
2016,11,10,07,43,11.60
2016,11,10,07,44,11.60
2016,11,10,07,45,11.60
2016,11,10,07,46,11.60
2016,11,10,07,47,11.60
2016,11,10,07,48,11.60
2016,11,10,07,49,11.60
2016,11,10,07,50,11.60
2016,11,10,07,51,11.60
2016,11,10,07,52,11.60
2016,11,10,07,53,11.60
2016,11,10,07,54,11.60
2016,11,10,07,55,11.60
2016,11,10,07,56,11.60
2016,11,10,07,57,11.60
2016,11,10,07,58,11.60
2016,11,10,07,59,11.60
2016,11,10,08,00,11.60
2016,11,10,08,01,11.60
2016,11,10,08,02,11.60
2016,11,10,08,03,11.60
2016,11,10,08,04,11.60
2016,11,10,08,05,11.60
2016,11,10,08,06,11.60
2016,11,10,08,07,11.60
2016,11,10,08,08,11.60
2016,11,10,08,09,11.60
2016,11,10,08,10,11.60
2016,11,10,08,11,11.60
2016,11,10,08,12,11.60
2016,11,10,08,13,11.60
2016,11,10,08,14,11.60
2016,11,10,08,15,11.60
2016,11,10,08,16,11.60
2016,11,10,08,17,11.60
2016,11,10,08,18,11.70
2016,11,10,08,19,11.70
2016,11,10,08,20,11.70
2016,11,10,08,21,11.70
2016,11,10,08,22,11.70
2016,11,10,08,23,11.70
2016,11,10,08,24,11.70
2016,11,10,08,25,11.70
2016,11,10,08,26,11.70
2016,11,10,08,27,11.70
2016,11,10,08,28,11.70
2016,11,10,08,29,11.70
2016,11,10,08,30,11.70
2016,11,10,08,31,11.70
2016,11,10,08,32,11.70
2016,11,10,08,33,11.70
2016,11,10,08,34,11.70
2016,11,10,08,35,11.70
2016,11,10,08,36,11.70
2016,11,10,08,37,11.70
2016,11,10,08,38,11.70
2016,11,10,08,39,11.70
2016,11,10,08,40,11.70
2016,11,10,08,41,11.70
2016,11,10,08,42,11.70
2016,11,10,08,43,11.70
2016,11,10,08,44,11.70
2016,11,10,08,45,11.70
2016,11,10,08,46,11.70
2016,11,10,08,47,11.70
2016,11,10,08,48,11.70
2016,11,10,08,49,11.70
2016,11,10,08,50,11.70
2016,11,10,08,51,11.70
2016,11,10,08,52,11.70
2016,11,10,08,53,11.70
2016,11,10,08,54,11.70
2016,11,10,08,55,11.70
2016,11,10,08,56,11.70
2016,11,10,08,57,11.70
2016,11,10,08,58,11.70
2016,11,10,08,59,11.70
2016,11,10,09,00,11.70
2016,11,10,09,01,11.70
2016,11,10,09,02,11.70
2016,11,10,09,03,11.70
2016,11,10,09,04,11.70
2016,11,10,09,05,11.70
2016,11,10,09,06,11.70
2016,11,10,09,07,11.70
2016,11,10,09,08,11.70
2016,11,10,09,09,11.70
2016,11,10,09,10,11.70
2016,11,10,09,11,11.70
2016,11,10,09,12,11.70
2016,11,10,09,13,11.70
2016,11,10,09,14,11.70
2016,11,10,09,15,11.70
2016,11,10,09,16,11.70
2016,11,10,09,17,11.70
2016,11,10,09,18,11.70
2016,11,10,09,19,11.70
2016,11,10,09,20,11.70
2016,11,10,09,21,11.70
2016,11,10,09,22,11.70
2016,11,10,09,23,11.70
2016,11,10,09,24,11.70
2016,11,10,09,25,11.70
2016,11,10,09,26,11.70
2016,11,10,09,27,11.70
2016,11,10,09,28,11.70
2016,11,10,09,29,11.70
2016,11,10,09,30,11.70
2016,11,10,09,31,11.70
2016,11,10,09,32,11.70
2016,11,10,09,33,11.70
2016,11,10,09,34,11.70
2016,11,10,09,35,11.70
2016,11,10,09,36,11.70
2016,11,10,09,37,11.60
2016,11,10,09,38,11.60
2016,11,10,09,39,11.60
2016,11,10,09,40,11.60
2016,11,10,09,41,11.60
2016,11,10,09,42,11.60
2016,11,10,09,43,11.60
2016,11,10,09,44,11.60
2016,11,10,09,45,11.60
2016,11,10,09,46,11.60
2016,11,10,09,47,11.60
2016,11,10,09,48,11.60
2016,11,10,09,49,11.60
2016,11,10,09,50,11.60
2016,11,10,09,51,11.60
2016,11,10,09,52,11.60
2016,11,10,09,53,11.60
2016,11,10,09,54,11.60
2016,11,10,09,55,11.60
2016,11,10,09,56,11.60
2016,11,10,09,57,11.60
2016,11,10,09,58,11.60
2016,11,10,09,59,11.60
2016,11,10,10,00,11.60
2016,11,10,10,01,11.60
2016,11,10,10,02,11.60
2016,11,10,10,03,11.60
2016,11,10,10,04,11.60
2016,11,10,10,05,11.50
2016,11,10,10,06,11.50
2016,11,10,10,07,11.60
2016,11,10,10,08,11.50
2016,11,10,10,09,11.50
2016,11,10,10,10,11.50
2016,11,10,10,11,11.50
2016,11,10,10,12,11.50
2016,11,10,10,13,11.50
2016,11,10,10,14,11.50
2016,11,10,10,15,11.50
2016,11,10,10,16,11.50
2016,11,10,10,17,11.50
2016,11,10,10,18,11.50
2016,11,10,10,19,11.50
2016,11,10,10,20,11.50
2016,11,10,10,21,11.50
2016,11,10,10,22,11.60
2016,11,10,10,23,11.50
2016,11,10,10,24,11.50
2016,11,10,10,25,11.50
2016,11,10,10,26,11.50
2016,11,10,10,27,11.50
2016,11,10,10,28,11.50
2016,11,10,10,29,11.50
2016,11,10,10,30,11.50
2016,11,10,10,31,11.50
2016,11,10,10,32,11.50
2016,11,10,10,33,11.50
2016,11,10,10,34,11.50
2016,11,10,10,35,11.50
2016,11,10,10,36,11.50
2016,11,10,10,37,11.50
2016,11,10,10,38,11.50
2016,11,10,10,39,11.50
2016,11,10,10,40,11.50
2016,11,10,10,41,11.50
2016,11,10,10,42,11.50
2016,11,10,10,43,11.50
2016,11,10,10,44,11.50
2016,11,10,10,45,11.50
2016,11,10,10,46,11.50
2016,11,10,10,47,11.50
2016,11,10,10,48,11.50
2016,11,10,10,49,11.50
2016,11,10,10,50,11.50
2016,11,10,10,51,11.50
2016,11,10,10,52,11.50
2016,11,10,10,53,11.50
2016,11,10,10,54,11.50
2016,11,10,10,55,11.50
2016,11,10,10,56,11.50
2016,11,10,10,57,11.50
2016,11,10,10,58,11.50
2016,11,10,10,59,11.50
2016,11,10,11,00,11.50
2016,11,10,11,01,11.50
2016,11,10,11,02,11.50
2016,11,10,11,03,11.50
2016,11,10,11,04,11.50
2016,11,10,11,05,11.50
2016,11,10,11,06,11.60
2016,11,10,11,07,11.60
2016,11,10,11,08,11.60
2016,11,10,11,09,11.60
2016,11,10,11,10,11.60
2016,11,10,11,11,11.60
2016,11,10,11,12,11.60
2016,11,10,11,13,11.60
2016,11,10,11,14,11.60
2016,11,10,11,15,11.60
2016,11,10,11,16,11.60
2016,11,10,11,17,11.60
2016,11,10,11,18,11.60
2016,11,10,11,19,11.60
2016,11,10,11,20,11.60
2016,11,10,11,21,11.60
2016,11,10,11,22,11.60
2016,11,10,11,23,11.60
2016,11,10,11,24,11.60
2016,11,10,11,25,11.60
2016,11,10,11,26,11.60
2016,11,10,11,27,11.60
2016,11,10,11,28,11.60
2016,11,10,11,29,11.60
2016,11,10,11,30,11.60
2016,11,10,11,31,11.60
2016,11,10,11,32,11.60
2016,11,10,11,33,11.60
2016,11,10,11,34,11.60
2016,11,10,11,35,11.60
2016,11,10,11,36,11.60
2016,11,10,11,37,11.60
2016,11,10,11,38,11.60
2016,11,10,11,39,11.60
2016,11,10,11,40,11.60
2016,11,10,11,41,11.60
2016,11,10,11,42,11.60
2016,11,10,11,43,11.60
2016,11,10,11,44,11.60
2016,11,10,11,45,11.70
2016,11,10,11,46,11.70
2016,11,10,11,47,11.70
2016,11,10,11,48,11.70
2016,11,10,11,49,11.70
2016,11,10,11,50,11.70
2016,11,10,11,51,11.70
2016,11,10,11,52,11.70
2016,11,10,11,53,11.70
2016,11,10,11,54,11.70
2016,11,10,11,55,11.70
2016,11,10,11,56,11.70
2016,11,10,11,57,11.80
2016,11,10,11,58,11.80
2016,11,10,11,59,11.80
2016,11,10,12,00,11.80
2016,11,10,12,01,11.80
2016,11,10,12,02,11.80
2016,11,10,12,03,11.80
2016,11,10,12,04,11.80
2016,11,10,12,05,11.80
2016,11,10,12,06,11.80
2016,11,10,12,07,11.80
2016,11,10,12,08,11.80
2016,11,10,12,09,11.80
2016,11,10,12,10,11.80
2016,11,10,12,11,11.80
2016,11,10,12,12,11.80
2016,11,10,12,13,11.80
2016,11,10,12,14,11.80
2016,11,10,12,15,11.80
2016,11,10,12,16,11.80
2016,11,10,12,17,11.80
2016,11,10,12,18,11.80
2016,11,10,12,19,11.80
2016,11,10,12,20,11.80
2016,11,10,12,21,11.80
2016,11,10,12,22,11.80
2016,11,10,12,23,11.70
2016,11,10,12,24,11.80
2016,11,10,12,25,11.70
2016,11,10,12,26,11.70
2016,11,10,12,27,11.80
2016,11,10,12,28,11.80
2016,11,10,12,29,11.80
2016,11,10,12,30,11.80
2016,11,10,12,31,11.80
2016,11,10,12,32,11.80
2016,11,10,12,33,11.80
2016,11,10,12,34,11.80
2016,11,10,12,35,11.80
2016,11,10,12,36,11.80
2016,11,10,12,37,11.80
2016,11,10,12,38,11.90
2016,11,10,12,39,11.90
2016,11,10,12,40,11.90
2016,11,10,12,41,11.90
2016,11,10,12,42,11.90
2016,11,10,12,43,11.90
2016,11,10,12,44,11.90
2016,11,10,12,45,11.90
2016,11,10,12,46,11.90
2016,11,10,12,47,11.90
2016,11,10,12,48,11.90
2016,11,10,12,49,12.00
2016,11,10,12,50,12.00
2016,11,10,12,51,12.00
2016,11,10,12,52,12.00
2016,11,10,12,53,12.10
2016,11,10,12,54,12.10
2016,11,10,12,55,12.10
2016,11,10,12,56,12.10
2016,11,10,12,57,12.10
2016,11,10,12,58,12.10
2016,11,10,12,59,12.10
2016,11,10,13,00,12.10
2016,11,10,13,01,12.10
2016,11,10,13,02,12.10
2016,11,10,13,03,12.10
2016,11,10,13,04,12.10
2016,11,10,13,05,12.10
2016,11,10,13,06,12.10
2016,11,10,13,07,12.10
2016,11,10,13,08,12.10
2016,11,10,13,09,12.10
2016,11,10,13,10,12.10
2016,11,10,13,11,12.10
2016,11,10,13,12,12.10
2016,11,10,13,13,12.00
2016,11,10,13,14,12.00
2016,11,10,13,15,12.00
2016,11,10,13,16,12.00
2016,11,10,13,17,12.00
2016,11,10,13,18,12.00
2016,11,10,13,19,12.00
2016,11,10,13,20,12.00
2016,11,10,13,21,11.90
2016,11,10,13,22,11.90
2016,11,10,13,23,11.90
2016,11,10,13,24,11.90
2016,11,10,13,25,11.90
2016,11,10,13,26,11.90
2016,11,10,13,27,11.90
2016,11,10,13,28,11.90
2016,11,10,13,29,11.90
2016,11,10,13,30,11.90
2016,11,10,13,31,11.90
2016,11,10,13,32,11.90
2016,11,10,13,33,11.80
2016,11,10,13,34,11.80
2016,11,10,13,35,11.80
2016,11,10,13,36,11.80
2016,11,10,13,37,11.80
2016,11,10,13,38,11.80
2016,11,10,13,39,11.80
2016,11,10,13,40,11.80
2016,11,10,13,41,11.80
2016,11,10,13,42,11.80
2016,11,10,13,43,11.80
2016,11,10,13,44,11.80
2016,11,10,13,45,11.80
2016,11,10,13,46,11.80
2016,11,10,13,47,11.80
2016,11,10,13,48,11.80
2016,11,10,13,49,11.80
2016,11,10,13,50,11.80
2016,11,10,13,51,11.80
2016,11,10,13,52,11.80
2016,11,10,13,53,11.80
2016,11,10,13,54,11.90
2016,11,10,13,55,11.90
2016,11,10,13,56,11.90
2016,11,10,13,57,11.90
2016,11,10,13,58,11.90
2016,11,10,13,59,11.90
2016,11,10,14,00,11.90
2016,11,10,14,01,11.90
2016,11,10,14,02,11.90
2016,11,10,14,03,11.90
2016,11,10,14,04,11.90
2016,11,10,14,05,11.90
2016,11,10,14,06,11.90
2016,11,10,14,07,11.90
2016,11,10,14,08,11.90
2016,11,10,14,09,11.90
2016,11,10,14,10,11.90
2016,11,10,14,11,11.90
2016,11,10,14,12,11.90
2016,11,10,14,13,11.90
2016,11,10,14,14,11.90
2016,11,10,14,15,11.90
2016,11,10,14,16,11.90
2016,11,10,14,17,11.90
2016,11,10,14,18,11.90
2016,11,10,14,19,11.90
2016,11,10,14,20,12.00
2016,11,10,14,21,12.00
2016,11,10,14,22,12.00
2016,11,10,14,23,12.10
2016,11,10,14,24,12.10
2016,11,10,14,25,12.10
2016,11,10,14,26,12.20
2016,11,10,14,27,12.20
2016,11,10,14,28,12.20
2016,11,10,14,29,12.20
2016,11,10,14,30,12.30
2016,11,10,14,31,12.30
2016,11,10,14,32,12.30
2016,11,10,14,33,12.20
2016,11,10,14,34,12.20
2016,11,10,14,35,12.20
2016,11,10,14,36,12.20
2016,11,10,14,37,12.20
2016,11,10,14,38,12.20
2016,11,10,14,39,12.20
2016,11,10,14,40,12.20
2016,11,10,14,41,12.20
2016,11,10,14,42,12.30
2016,11,10,14,43,12.30
2016,11,10,14,44,12.30
2016,11,10,14,45,12.30
2016,11,10,14,46,12.30
2016,11,10,14,47,12.30
2016,11,10,14,48,12.30
2016,11,10,14,49,12.20
2016,11,10,14,50,12.20
2016,11,10,14,51,12.20
2016,11,10,14,52,12.20
2016,11,10,14,53,12.20
2016,11,10,14,54,12.20
2016,11,10,14,55,12.20
2016,11,10,14,56,12.20
2016,11,10,14,57,12.20
2016,11,10,14,58,12.20
2016,11,10,14,59,12.10
2016,11,10,15,00,12.10
2016,11,10,15,01,12.10
2016,11,10,15,02,12.10
2016,11,10,15,03,12.10
2016,11,10,15,04,12.10
2016,11,10,15,05,12.10
2016,11,10,15,06,12.00
2016,11,10,15,07,12.00
2016,11,10,15,08,12.00
2016,11,10,15,09,12.00
2016,11,10,15,10,11.90
2016,11,10,15,11,11.90
2016,11,10,15,12,11.90
2016,11,10,15,13,11.90
2016,11,10,15,14,11.90
2016,11,10,15,15,11.90
2016,11,10,15,16,11.90
2016,11,10,15,17,11.90
2016,11,10,15,18,11.90
2016,11,10,15,19,11.90
2016,11,10,15,20,11.90
2016,11,10,15,21,11.90
2016,11,10,15,22,11.90
2016,11,10,15,23,11.90
2016,11,10,15,24,11.90
2016,11,10,15,25,11.90
2016,11,10,15,26,11.90
2016,11,10,15,27,11.90
2016,11,10,15,28,11.90
2016,11,10,15,29,11.90
2016,11,10,15,30,11.90
2016,11,10,15,31,11.90
2016,11,10,15,32,11.90
2016,11,10,15,33,11.90
2016,11,10,15,34,11.80
2016,11,10,15,35,11.80
2016,11,10,15,36,11.80
2016,11,10,15,37,11.80
2016,11,10,15,38,11.80
2016,11,10,15,39,11.80
2016,11,10,15,40,11.80
2016,11,10,15,41,11.80
2016,11,10,15,42,11.80
2016,11,10,15,43,11.80
2016,11,10,15,44,11.80
2016,11,10,15,45,11.80
2016,11,10,15,46,11.80
2016,11,10,15,47,11.80
2016,11,10,15,48,11.80
2016,11,10,15,49,11.80
2016,11,10,15,50,11.80
2016,11,10,15,51,11.80
2016,11,10,15,52,11.80
2016,11,10,15,53,11.80
2016,11,10,15,54,11.80
2016,11,10,15,55,11.90
2016,11,10,15,56,11.90
2016,11,10,15,57,11.90
2016,11,10,15,58,11.90
2016,11,10,15,59,11.90
2016,11,10,16,00,11.80
2016,11,10,16,01,11.80
2016,11,10,16,02,11.80
2016,11,10,16,03,11.80
2016,11,10,16,04,11.80
2016,11,10,16,05,11.80
2016,11,10,16,06,11.80
2016,11,10,16,07,11.80
2016,11,10,16,08,11.80
2016,11,10,16,09,11.80
2016,11,10,16,10,11.80
2016,11,10,16,11,11.70
2016,11,10,16,12,11.70
2016,11,10,16,13,11.70
2016,11,10,16,14,11.70
2016,11,10,16,15,11.70
2016,11,10,16,16,11.70
2016,11,10,16,17,11.70
2016,11,10,16,18,11.70
2016,11,10,16,19,11.70
2016,11,10,16,20,11.70
2016,11,10,16,21,11.70
2016,11,10,16,22,11.70
2016,11,10,16,23,11.70
2016,11,10,16,24,11.70
2016,11,10,16,25,11.70
2016,11,10,16,26,11.70
2016,11,10,16,27,11.70
2016,11,10,16,28,11.70
2016,11,10,16,29,11.70
2016,11,10,16,30,11.70
2016,11,10,16,31,11.70
2016,11,10,16,32,11.70
2016,11,10,16,33,11.70
2016,11,10,16,34,11.80
2016,11,10,16,35,11.80
2016,11,10,16,36,11.80
2016,11,10,16,37,11.80
2016,11,10,16,38,11.80
2016,11,10,16,39,11.80
2016,11,10,16,40,11.80
2016,11,10,16,41,11.80
2016,11,10,16,42,11.80
2016,11,10,16,43,11.80
2016,11,10,16,44,11.80
2016,11,10,16,45,11.80
2016,11,10,16,46,11.80
2016,11,10,16,47,11.80
2016,11,10,16,48,11.80
2016,11,10,16,49,11.70
2016,11,10,16,50,11.70
2016,11,10,16,51,11.70
2016,11,10,16,52,11.70
2016,11,10,16,53,11.70
2016,11,10,16,54,11.70
2016,11,10,16,55,11.70
2016,11,10,16,56,11.70
2016,11,10,16,57,11.70
2016,11,10,16,58,11.70
2016,11,10,16,59,11.70
2016,11,10,17,00,11.70
2016,11,10,17,01,11.70
2016,11,10,17,02,11.70
2016,11,10,17,03,11.70
2016,11,10,17,04,11.70
2016,11,10,17,05,11.70
2016,11,10,17,06,11.70
2016,11,10,17,07,11.70
2016,11,10,17,08,11.70
2016,11,10,17,09,11.70
2016,11,10,17,10,11.70
2016,11,10,17,11,11.70
2016,11,10,17,12,11.70
2016,11,10,17,13,11.70
2016,11,10,17,14,11.70
2016,11,10,17,15,11.80
2016,11,10,17,16,11.80
2016,11,10,17,17,11.80
2016,11,10,17,18,11.80
2016,11,10,17,19,11.80